TimeEST,TemperatureF,Dew PointF,Humidity,Sea Level PressureIn,VisibilityMPH,Wind Direction,Wind SpeedMPH,Gust SpeedMPH,PrecipitationIn,Events,Conditions,WindDirDegrees,DateUTC
12:15 AM,31.8,18.7,58,30.05,10.0,NNW,11.5,16.1,N/A,,Clear,340,2013-02-04 05:15:00
12:35 AM,31.6,18.3,58,30.04,10.0,North,10.4,19.6,N/A,,Clear,350,2013-02-04 05:35:00
12:55 AM,31.5,17.6,57,30.04,10.0,NNW,9.2,-,N/A,,Clear,340,2013-02-04 05:55:00
1:15 AM,31.1,17.4,57,30.04,10.0,NNW,6.9,-,N/A,,Clear,330,2013-02-04 06:15:00
1:35 AM,31.6,16.3,53,30.03,10.0,NNW,5.8,-,N/A,,Clear,340,2013-02-04 06:35:00
1:55 AM,30.2,16.5,57,30.03,10.0,West,3.5,-,N/A,,Clear,280,2013-02-04 06:55:00
2:15 AM,30.9,16.0,54,30.02,10.0,Calm,Calm,-,N/A,,Clear,0,2013-02-04 07:15:00
2:35 AM,27.7,17.4,65,30.03,10.0,Calm,Calm,-,N/A,,Clear,0,2013-02-04 07:35:00
2:55 AM,26.6,19.2,74,30.02,10.0,Calm,Calm,-,N/A,,Clear,0,2013-02-04 07:55:00
3:15 AM,25.5,19.0,76,30.02,10.0,Calm,Calm,-,N/A,,Clear,0,2013-02-04 08:15:00
3:35 AM,25.3,19.8,79,30.04,10.0,Calm,Calm,-,N/A,,Clear,0,2013-02-04 08:35:00
3:55 AM,23.9,19.8,84,30.04,10.0,Calm,Calm,-,N/A,,Clear,0,2013-02-04 08:55:00
4:15 AM,22.8,19.2,86,30.04,10.0,Calm,Calm,-,N/A,,Clear,0,2013-02-04 09:15:00
5:55 AM,23.0,19.8,87,30.03,10.0,Calm,Calm,-,N/A,,Clear,0,2013-02-04 10:55:00
6:15 AM,23.4,20.5,89,30.04,10.0,Calm,Calm,-,N/A,,Clear,0,2013-02-04 11:15:00
6:35 AM,23.5,19.9,86,30.05,10.0,Calm,Calm,-,N/A,,Clear,0,2013-02-04 11:35:00
6:55 AM,23.0,19.8,87,30.06,10.0,Calm,Calm,-,N/A,,Clear,0,2013-02-04 11:55:00
7:15 AM,24.3,20.3,85,30.06,10.0,Calm,Calm,-,N/A,,Clear,0,2013-02-04 12:15:00
7:35 AM,23.7,20.3,87,30.07,10.0,Calm,Calm,-,N/A,,Clear,0,2013-02-04 12:35:00
7:55 AM,24.1,20.7,87,30.08,10.0,Calm,Calm,-,N/A,,Clear,0,2013-02-04 12:55:00
8:15 AM,25.0,21.2,86,30.09,10.0,Calm,Calm,-,N/A,,Clear,0,2013-02-04 13:15:00
8:35 AM,26.1,21.7,84,30.09,10.0,Calm,Calm,-,N/A,,Clear,0,2013-02-04 13:35:00
8:55 AM,26.6,21.4,81,30.10,10.0,Calm,Calm,-,N/A,,Clear,0,2013-02-04 13:55:00
9:15 AM,27.5,22.1,80,30.11,10.0,Calm,Calm,-,N/A,,Clear,0,2013-02-04 14:15:00
9:35 AM,29.1,21.2,72,30.09,10.0,Calm,Calm,-,N/A,,Clear,0,2013-02-04 14:35:00
9:55 AM,29.3,20.8,71,30.10,10.0,Calm,Calm,-,N/A,,Clear,0,2013-02-04 14:55:00
10:15 AM,30.9,21.2,67,30.11,10.0,Calm,Calm,-,N/A,,Clear,0,2013-02-04 15:15:00
10:35 AM,32.0,20.5,63,30.11,10.0,Calm,Calm,-,N/A,,Clear,0,2013-02-04 15:35:00
10:55 AM,33.8,20.8,59,30.11,10.0,Calm,Calm,-,N/A,,Clear,0,2013-02-04 15:55:00
11:15 AM,34.7,20.1,55,30.11,10.0,Calm,Calm,-,N/A,,Clear,0,2013-02-04 16:15:00
11:35 AM,36.1,21.0,54,30.10,10.0,Calm,Calm,-,N/A,,Clear,0,2013-02-04 16:35:00
11:55 AM,37.0,21.2,53,30.08,10.0,Calm,Calm,-,N/A,,Clear,0,2013-02-04 16:55:00
12:15 PM,38.1,20.5,49,30.08,10.0,Calm,Calm,-,N/A,,Clear,0,2013-02-04 17:15:00
12:35 PM,41.0,22.1,47,30.06,10.0,Calm,Calm,-,N/A,,Clear,0,2013-02-04 17:35:00
12:55 PM,42.4,21.4,43,30.04,10.0,Calm,Calm,-,N/A,,Clear,0,2013-02-04 17:55:00
1:15 PM,44.4,22.1,41,30.03,10.0,Calm,Calm,-,N/A,,Clear,0,2013-02-04 18:15:00
1:35 PM,44.6,20.8,39,30.01,10.0,Calm,Calm,-,N/A,,Mostly Cloudy,0,2013-02-04 18:35:00
1:55 PM,45.9,20.8,37,30.01,10.0,Calm,Calm,-,N/A,,Overcast,0,2013-02-04 18:55:00
2:15 PM,47.5,20.5,34,29.99,10.0,NE,3.5,-,N/A,,Overcast,40,2013-02-04 19:15:00
2:35 PM,49.1,20.1,32,29.98,10.0,SSE,6.9,-,N/A,,Mostly Cloudy,150,2013-02-04 19:35:00
2:55 PM,49.8,16.9,27,29.98,10.0,SSE,5.8,-,N/A,,Mostly Cloudy,150,2013-02-04 19:55:00
3:15 PM,49.3,16.7,27,29.99,10.0,SE,5.8,-,N/A,,Scattered Clouds,140,2013-02-04 20:15:00
3:35 PM,49.6,17.2,28,29.98,10.0,SSE,4.6,-,N/A,,Mostly Cloudy,160,2013-02-04 20:35:00
3:55 PM,49.6,18.7,29,29.98,10.0,South,4.6,-,N/A,,Scattered Clouds,180,2013-02-04 20:55:00
4:15 PM,49.3,18.3,29,29.98,10.0,South,4.6,-,N/A,,Scattered Clouds,170,2013-02-04 21:15:00
4:35 PM,48.6,18.1,30,29.97,10.0,SE,4.6,-,N/A,,Mostly Cloudy,140,2013-02-04 21:35:00
4:55 PM,48.2,18.7,31,29.97,10.0,SSE,4.6,-,N/A,,Scattered Clouds,160,2013-02-04 21:55:00
5:15 PM,47.3,19.2,33,29.97,10.0,South,3.5,-,N/A,,Clear,180,2013-02-04 22:15:00
5:35 PM,46.4,19.8,35,29.97,10.0,South,3.5,-,N/A,,Clear,170,2013-02-04 22:35:00
5:55 PM,45.3,21.0,38,29.98,10.0,Calm,Calm,-,N/A,,Scattered Clouds,0,2013-02-04 22:55:00
6:15 PM,40.1,26.2,58,29.97,10.0,Calm,Calm,-,N/A,,Scattered Clouds,0,2013-02-04 23:15:00
6:35 PM,36.9,27.1,68,29.97,10.0,Calm,Calm,-,N/A,,Clear,0,2013-02-04 23:35:00
6:55 PM,35.1,27.5,74,29.98,10.0,Calm,Calm,-,N/A,,Scattered Clouds,0,2013-02-04 23:55:00
7:15 PM,34.2,27.3,76,29.99,10.0,Calm,Calm,-,N/A,,Overcast,0,2013-02-05 00:15:00
7:35 PM,34.7,28.9,79,29.98,10.0,Calm,Calm,-,N/A,,Overcast,0,2013-02-05 00:35:00
7:55 PM,34.5,28.9,80,29.98,10.0,Calm,Calm,-,N/A,,Overcast,0,2013-02-05 00:55:00
8:15 PM,34.5,28.9,80,29.99,10.0,Calm,Calm,-,N/A,,Overcast,0,2013-02-05 01:15:00
8:35 PM,34.2,28.9,81,29.99,10.0,Calm,Calm,-,N/A,,Mostly Cloudy,0,2013-02-05 01:35:00
8:55 PM,34.2,28.4,79,30.01,10.0,Calm,Calm,-,N/A,,Overcast,0,2013-02-05 01:55:00
9:15 PM,34.3,29.1,81,30.01,10.0,Calm,Calm,-,N/A,,Overcast,0,2013-02-05 02:15:00
9:35 PM,34.3,29.7,83,30.00,10.0,Calm,Calm,-,N/A,,Overcast,0,2013-02-05 02:35:00
9:55 PM,34.7,29.5,81,30.00,10.0,Calm,Calm,-,N/A,,Overcast,0,2013-02-05 02:55:00
10:15 PM,34.7,29.8,82,30.00,10.0,Calm,Calm,-,N/A,,Overcast,0,2013-02-05 03:15:00
10:35 PM,34.9,29.7,81,29.99,10.0,Calm,Calm,-,N/A,,Overcast,0,2013-02-05 03:35:00
10:55 PM,34.9,29.8,82,29.99,10.0,Calm,Calm,-,N/A,,Overcast,0,2013-02-05 03:55:00
11:15 PM,34.9,29.7,81,29.99,10.0,Calm,Calm,-,N/A,,Overcast,0,2013-02-05 04:15:00
11:35 PM,34.7,30.0,83,29.99,10.0,Calm,Calm,-,N/A,,Overcast,0,2013-02-05 04:35:00
11:55 PM,34.7,29.8,82,29.97,10.0,Calm,Calm,-,N/A,,Overcast,0,2013-02-05 04:55:00